Location: Cucq
(50.4773°N, 1.6202°E)
Time: 10:28:45
(UTC+00:00)

DELTA 2 DEB (DPAF) - Pass Details

Date: 07 August 2020
Orbit: 642 x 645 km, 98.3° (Epoch: 20 September)

Event Time Altitude Azimuth Distance (km) Brightness Sun altitude
Exits shadow 01:00:27 41° 134° (SE) 936 4.7 -21.9°
Maximum altitude 01:01:49 63° 71° (ENE) 720 4.4 -21.8°
Drops below altitude 10° 01:06:14 10° 351° (N) 2,051 7.6 -21.6°
Sets 01:08:28 0° 348° (NNW) 2,965 8.6 -21.5°
